User: anonymous   Login
Location: Ostrava
(49.8330°N, 18.2830°E)
Time: 22:57:52
(UTC+02:00)
Language:

NOAA 19 - Orbit

View from above orbital plane
View from above orbital plane
View from above satellite
View from above satellite

Ground track
Ground track

The orbit data is extracted from the following two-line orbital elements,

1 33591U 09005A   15241.50939272  .00000131  00000-0  96522-4 0  9998
2 33591 098.9958 191.5865 0013533 327.9477 032.0870 14.11970874337836
Epoch (UTC): 29 August 2015 12:13:31
Eccentricity: 0.0013533
inclination: 98.9958°
perigee height: 843 km
apogee height: 862 km
right ascension of ascending node: 191.5865°
argument of perigee: 327.9477°
revolutions per day: 14.11970874
mean anomaly at epoch: 32.0870°
orbit number at epoch: 33783

The dashed part of the orbit path shows where the satellite is in the earth's shadow,  

DLR